User: anonymous   Login
Location: Unspecified
(0.0000°N, 0.0000°E)
Time: 17:05:59
(UTC+00:00)
Language:

ESSA 5 - Orbit

View from above orbital plane
View from above orbital plane
View from above satellite
View from above satellite

Ground track
Ground track

The orbit data is extracted from the following two-line orbital elements,

1  2757U 67036A   19015.80038390 -.00000060 +00000-0 -61582-4 0  9994
2  2757 101.8349 088.3606 0043050 198.7413 275.6896 12.68499439395437
Epoch (UTC): 15 January 2019 19:12:33
Eccentricity: 0.0043050
inclination: 101.8349°
perigee height: 1354 km
apogee height: 1421 km
right ascension of ascending node: 88.3606°
argument of perigee: 198.7413°
revolutions per day: 12.68499439
mean anomaly at epoch: 275.6896°
orbit number at epoch: 39543

The dashed part of the orbit path shows where the satellite is in the earth's shadow,  

DLR